Simultaneous Nadir Overpasses (SNOs) Predictions

Prediction of SNOs between GOES-14 and NPP Satellite Orbit:

Table of predicted SNOs for the next 14.0 days since TLE Epoch: 7/4/2020
Index Date Time (GOES-14) GOES-14 Lat,Lon NPP Lat,Lon Distance(km) Time Diff (sec)
1 07/04/2020 08:13:44 -0.17,-104.23 -0.70,-101.97 257.77 80
2 07/05/2020 20:33:03 0.21,-104.44 -0.43,-107.29 325.70 80
3 07/06/2020 20:16:58 0.19,-104.44 0.55,-102.76 191.39 80
4 07/08/2020 08:36:07 -0.23,-104.25 0.59,-108.04 430.97 80
5 07/09/2020 08:20:03 -0.21,-104.26 -0.39,-103.50 86.27 80
6 07/10/2020 20:39:21 0.25,-104.46 -0.73,-108.82 496.72 80
7 07/11/2020 20:23:17 0.23,-104.47 0.25,-104.29 20.91 80
8 07/14/2020 08:23:42 -0.25,-104.30 -0.10,-105.03 83.40 80
9 07/15/2020 08:07:37 -0.23,-104.30 -1.09,-100.50 433.83 80
10 07/16/2020 20:26:55 0.27,-104.51 -0.04,-105.82 149.50 80
11 07/17/2020 20:10:52 0.26,-104.51 1.01,-101.29 367.77 80
